| time (UTC) | temp F | wind direction | speed MPH | gust MPH | rain 1hr in | rain 24hr in | rain mn in | humidity % | barometer mb |
| 20260906183007 | 67 | 73 | 5.0 | 15.0 | 0.01 | 0.01 | 0.01 | 87 | 1015.6 |
| 20260906181601 | 69 | 44 | 10.0 | 17.0 | 0.00 | 0.00 | 0.00 | 78 | 1015.4 |
| 20260906180112 | 72 | 120 | 6.0 | 12.0 | 0.00 | 0.00 | 0.00 | 76 | 1015.5 |
| 20260906174556 | 73 | 46 | 6.0 | 16.0 | 0.00 | 0.00 | 0.00 | 82 | 1015.3 |
| 20260906173058 | 73 | 345 | 6.0 | 11.0 | 0.00 | 0.00 | 0.00 | 81 | 1015.1 |
| 20260906171558 | 74 | 360 | 5.0 | 11.0 | 0.00 | 0.00 | 0.00 | 80 | 1015.2 |
| 20260906170118 | 75 | 355 | 1.0 | 7.0 | 0.00 | 0.00 | 0.00 | 76 | 1015.0 |
| 20260906164557 | 75 | 93 | 2.0 | 9.0 | 0.00 | 0.00 | 0.00 | 77 | 1015.1 |
| 20260906163052 | 75 | 55 | 6.0 | 10.0 | 0.00 | 0.00 | 0.00 | 76 | 1015.1 |
| 20260906161551 | 74 | 65 | 5.0 | 10.0 | 0.00 | 0.00 | 0.00 | 78 | 1015.2 |
| 20260906160051 | 74 | 66 | 5.0 | 12.0 | 0.00 | 0.00 | 0.00 | 79 | 1015.2 |
| 20260906154549 | 75 | 131 | 6.0 | 12.0 | 0.00 | 0.00 | 0.00 | 78 | 1015.1 |
| 20260906153046 | 74 | 350 | 1.0 | 7.0 | 0.00 | 0.00 | 0.00 | 82 | 1015.2 |
| 20260906151547 | 73 | 61 | 8.0 | 11.0 | 0.00 | 0.00 | 0.00 | 83 | 1015.1 |
| 20260906150043 | 73 | 63 | 7.0 | 10.0 | 0.00 | 0.00 | 0.00 | 83 | 1015.1 |
| 20260906144542 | 72 | 98 | 4.0 | 14.0 | 0.00 | 0.00 | 0.00 | 84 | 1015.1 |
| 20260906143041 | 71 | 98 | 6.0 | 14.0 | 0.00 | 0.00 | 0.00 | 88 | 1015.0 |
| 20260906141538 | 71 | 114 | 3.0 | 9.0 | 0.00 | 0.00 | 0.00 | 89 | 1014.9 |
| 20260906140037 | 71 | 101 | 5.0 | 10.0 | 0.00 | 0.00 | 0.00 | 90 | 1014.8 |
| 20260906134530 | 70 | 74 | 3.0 | 5.0 | 0.00 | 0.00 | 0.00 | 92 | 1015.0 |
| 20260906133029 | 70 | 65 | 1.0 | 6.0 | 0.00 | 0.00 | 0.00 | 93 | 1014.7 |
| 20260906131530 | 70 | 119 | 2.0 | 6.0 | 0.00 | 0.00 | 0.00 | 94 | 1014.5 |
| 20260906130030 | 70 | 89 | 1.0 | 6.0 | 0.00 | 0.00 | 0.00 | 94 | 1014.6 |
| 20260906124537 | 70 | 163 | 0.0 | 5.0 | 0.00 | 0.00 | 0.00 | 95 | 1014.1 |
| 20260906123051 | 69 | 43 | 4.0 | 10.0 | 0.00 | 0.00 | 0.00 | 95 | 1014.0 |
| 20260906121521 | 69 | 42 | 5.0 | 12.0 | 0.00 | 0.00 | 0.00 | 96 | 1013.9 |
| 20260906120019 | 69 | 28 | 3.0 | 8.0 | 0.00 | 0.00 | 0.00 | 97 | 1013.5 |
| 20260906114517 | 68 | 39 | 2.0 | 5.0 | 0.00 | 0.00 | 0.00 | 97 | 1013.5 |
| 20260906113016 | 68 | 15 | 1.0 | 4.0 | 0.00 | 0.00 | 0.00 | 97 | 1013.6 |
| 20260906111522 | 68 | 5 | 1.0 | 4.0 | 0.00 | 0.00 | 0.00 | 97 | 1013.4 |
| 20260906110008 | 68 | 355 | 2.0 | 4.0 | 0.00 | 0.00 | 0.00 | 97 | 1013.3 |
| 20260906104505 | 68 | 338 | 1.0 | 4.0 | 0.00 | 0.00 | 0.00 | 96 | 1013.0 |
| 20260906103005 | 69 | 338 | 0.0 | 2.0 | 0.00 | 0.00 | 0.00 | 96 | 1013.0 |
| 20260906101505 | 69 | 337 | 0.0 | 0.0 | 0.00 | 0.00 | 0.00 | 96 | 1012.7 |
| 20260906100003 | 69 | 337 | 0.0 | 3.0 | 0.00 | 0.00 | 0.00 | 96 | 1012.5 |
| 20260906094502 | 69 | 337 | 1.0 | 3.0 | 0.00 | 0.00 | 0.00 | 96 | 1012.5 |
| 20260906093002 | 69 | 336 | 3.0 | 5.0 | 0.00 | 0.00 | 0.00 | 96 | 1012.4 |
| 20260906091606 | 69 | 355 | 0.0 | 4.0 | 0.00 | 0.00 | 0.00 | 96 | 1012.1 |
| 20260906090100 | 69 | 63 | 0.0 | 7.0 | 0.00 | 0.00 | 0.00 | 96 | 1011.9 |
| 20260906084602 | 69 | 10 | 0.0 | 5.0 | 0.00 | 0.00 | 0.00 | 96 | 1012.0 |
| 20260906083059 | 69 | 41 | 1.0 | 4.0 | 0.00 | 0.00 | 0.00 | 96 | 1012.1 |
| 20260906081559 | 69 | 341 | 1.0 | 4.0 | 0.00 | 0.00 | 0.00 | 96 | 1011.9 |
| 20260906080058 | 69 | 11 | 1.0 | 3.0 | 0.00 | 0.00 | 0.00 | 95 | 1011.7 |
| 20260906074555 | 69 | 5 | 1.0 | 4.0 | 0.00 | 0.00 | 0.00 | 95 | 1011.9 |
| 20260906073055 | 69 | 329 | 1.0 | 3.0 | 0.00 | 0.00 | 0.00 | 95 | 1012.1 |
| 20260906071553 | 69 | 40 | 0.0 | 5.0 | 0.00 | 0.00 | 0.00 | 95 | 1011.8 |
| 20260906070052 | 70 | 22 | 1.0 | 4.0 | 0.00 | 0.00 | 0.00 | 94 | 1012.0 |
| 20260906064548 | 70 | 344 | 1.0 | 4.0 | 0.00 | 0.00 | 0.00 | 94 | 1012.1 |
| 20260906063047 | 70 | 19 | 0.0 | 3.0 | 0.00 | 0.00 | 0.00 | 93 | 1012.1 |
| 20260906061548 | 71 | 348 | 0.0 | 4.0 | 0.00 | 0.00 | 0.00 | 92 | 1012.3 |
| 20260906060046 | 71 | 42 | 3.0 | 6.0 | 0.00 | 0.00 | 0.00 | 91 | 1012.4 |
| 20260906054545 | 71 | 76 | 1.0 | 11.0 | 0.00 | 0.00 | 0.00 | 91 | 1012.2 |
| 20260906053053 | 71 | 100 | 4.0 | 13.0 | 0.00 | 0.00 | 0.00 | 90 | 1012.5 |
| 20260906051540 | 71 | 81 | 6.0 | 9.0 | 0.00 | 0.00 | 0.00 | 90 | 1012.6 |
| 20260906050049 | 72 | 82 | 2.0 | 9.0 | 0.00 | 0.00 | 0.00 | 90 | 1012.6 |
| 20260906044537 | 71 | 61 | 5.0 | 12.0 | 0.00 | 0.00 | 0.00 | 90 | 1012.6 |
| 20260906043035 | 72 | 74 | 0.0 | 2.0 | 0.00 | 0.00 | 0.00 | 88 | 1012.4 |
| 20260906041533 | 72 | 76 | 0.0 | 2.0 | 0.00 | 0.00 | 0.00 | 87 | 1012.4 |
| 20260906040031 | 72 | 76 | 0.0 | 0.0 | 0.00 | 0.00 | 0.00 | 86 | 1012.5 |
| 20260906034529 | 73 | 76 | 0.0 | 2.0 | 0.00 | 0.00 | 0.00 | 86 | 1012.4 |
| 20260906033029 | 74 | 76 | 0.0 | 1.0 | 0.00 | 0.00 | 0.00 | 84 | 1012.5 |
| 20260906031529 | 74 | 76 | 0.0 | 3.0 | 0.00 | 0.00 | 0.00 | 83 | 1012.3 |
| 20260906030029 | 74 | 76 | 0.0 | 2.0 | 0.00 | 0.00 | 0.00 | 82 | 1012.2 |
| 20260906024527 | 75 | 146 | 0.0 | 0.0 | 0.00 | 0.00 | 0.00 | 81 | 1012.2 |
| 20260906023028 | 76 | 146 | 1.0 | 3.0 | 0.00 | 0.00 | 0.00 | 80 | 1011.9 |
| 20260906021527 | 76 | 105 | 1.0 | 3.0 | 0.00 | 0.00 | 0.00 | 79 | 1012.0 |
| 20260906020026 | 76 | 103 | 0.0 | 4.0 | 0.00 | 0.00 | 0.00 | 78 | 1011.8 |
| 20260906014527 | 76 | 123 | 0.0 | 2.0 | 0.00 | 0.00 | 0.00 | 78 | 1011.7 |
| 20260906013031 | 77 | 122 | 1.0 | 4.0 | 0.00 | 0.00 | 0.00 | 77 | 1011.6 |
| 20260906011525 | 77 | 157 | 2.0 | 8.0 | 0.00 | 0.00 | 0.00 | 76 | 1011.1 |
| 20260906010024 | 78 | 127 | 1.0 | 9.0 | 0.00 | 0.00 | 0.00 | 75 | 1011.0 |
| 20260906004523 | 78 | 93 | 2.0 | 8.0 | 0.00 | 0.00 | 0.00 | 74 | 1011.0 |
| 20260906003023 | 79 | 123 | 2.0 | 6.0 | 0.00 | 0.00 | 0.00 | 73 | 1010.8 |
| 20260906001523 | 79 | 157 | 2.0 | 6.0 | 0.00 | 0.00 | 0.00 | 71 | 1010.6 |
| 20260906000037 | 80 | 145 | 3.0 | 7.0 | 0.00 | 0.00 | 0.00 | 70 | 1010.5 |
| 20260905234521 | 81 | 129 | 0.0 | 4.0 | 0.00 | 0.00 | 0.00 | 70 | 1010.2 |
| 20260905233021 | 82 | 101 | 2.0 | 6.0 | 0.00 | 0.00 | 0.00 | 69 | 1010.2 |
| 20260905231521 | 82 | 103 | 3.0 | 9.0 | 0.00 | 0.00 | 0.00 | 68 | 1010.4 |
| 20260905230020 | 83 | 138 | 4.0 | 8.0 | 0.00 | 0.00 | 0.00 | 67 | 1010.3 |
| 20260905224520 | 84 | 92 | 2.0 | 11.0 | 0.00 | 0.00 | 0.00 | 66 | 1010.5 |
| 20260905223019 | 84 | 102 | 3.0 | 9.0 | 0.00 | 0.00 | 0.00 | 65 | 1010.3 |
| 20260905221519 | 85 | 125 | 2.0 | 12.0 | 0.00 | 0.00 | 0.00 | 65 | 1010.2 |
| 20260905220019 | 86 | 102 | 5.0 | 10.0 | 0.00 | 0.00 | 0.00 | 64 | 1010.1 |
| 20260905214519 | 88 | 249 | 0.0 | 5.0 | 0.00 | 0.00 | 0.00 | 54 | 1010.0 |
| 20260905213017 | 88 | 350 | 2.0 | 8.0 | 0.00 | 0.00 | 0.00 | 55 | 1009.8 |
| 20260905211515 | 87 | 302 | 0.0 | 2.0 | 0.00 | 0.00 | 0.00 | 59 | 1009.7 |
| 20260905210016 | 87 | 36 | 1.0 | 5.0 | 0.00 | 0.00 | 0.00 | 61 | 1009.8 |
| 20260905204515 | 87 | 312 | 3.0 | 8.0 | 0.00 | 0.00 | 0.00 | 59 | 1009.7 |
| 20260905203013 | 87 | 159 | 0.0 | 5.0 | 0.00 | 0.00 | 0.00 | 62 | 1009.8 |
| 20260905201513 | 85 | 28 | 2.0 | 4.0 | 0.00 | 0.00 | 0.00 | 66 | 1009.7 |
| 20260905200017 | 86 | 132 | 0.0 | 5.0 | 0.00 | 0.00 | 0.00 | 65 | 1009.7 |
| 20260905194508 | 85 | 312 | 1.0 | 6.0 | 0.00 | 0.00 | 0.00 | 70 | 1009.8 |
| 20260905193009 | 85 | 76 | 1.0 | 4.0 | 0.00 | 0.00 | 0.00 | 71 | 1010.0 |
| 20260905191506 | 84 | 5 | 2.0 | 7.0 | 0.00 | 0.00 | 0.00 | 73 | 1010.3 |
| 20260905190004 | 83 | 48 | 3.0 | 8.0 | 0.00 | 0.00 | 0.00 | 74 | 1010.5 |
| 20260905184505 | 83 | 74 | 2.0 | 6.0 | 0.00 | 0.00 | 0.00 | 73 | 1010.6 |